Temp
10 10 10 10 10 9 9 8 8 8 7 7 7 6 6 5 5 4 4 4 4 3
10 10 10 10 9 9 8 7 7 7 6 6 6 5 5 4 4 3 3 2 2 2
9 9 9 8 8 7 7 6 6 6 6 5 5 5 4 4 3 2 1 1 1 1
8 8 7 6 6 6 6 5 5 5 5 5 4 4 3 3 2 1 0 -0 -0 -0
7 6 6 6 6 5 5 5 5 4 4 4 4 3 2 2 0 -0 -1 -1 -2 -2
6 5 5 5 5 4 4 4 4 4 3 3 3 3 2 1 0 -1 -2 -3 -3 -3
4 4 4 3 4 4 3 3 3 3 2 2 2 1 1 0 -0 -1 -3 -3 -3 -3
4 3 3 3 3 3 3 2 2 2 2 1 1 0 -1 -2 -2 -3 -4 -4 -4 -4
3 3 2 2 2 2 2 2 1 1 0 0 -0 -1 -2 -3 -5 -5 -5 -5 -5 -5
2 2 2 1 1 1 1 1 0 -0 -1 -1 -2 -3 -3 -5 -6 -6 -6 -6 -6 -6
1 1 1 1 1 1 -0 -1 -1 -2 -2 -3 -3 -4 -5 -7 -7 -7 -7 -6 -6 -6
1 0 -0 0 -0 -1 -2 -2 -2 -3 -3 -4 -3 -5 -6 -7 -7 -7 -7 -6 -7 -6
-0 -1 -0 -1 -2 -2 -3 -3 -3 -4 -4 -4 -5 -6 -8 -7 -7 -7 -7 -7 -7 -7
-1 -1 -2 -2 -3 -3 -4 -4 -4 -4 -4 -6 -7 -8 -8 -8 -7 -7 -7 -7 -7 -7
Height
1483 1480 1478 1476 1473 1470 1466 1462 1458 1455 1451 1447 1442 1437 1433 1428 1424 1420 1416 1411 1407 1402
1482 1480 1477 1474 1471 1467 1463 1459 1455 1451 1446 1442 1438 1433 1428 1423 1418 1414 1410 1405 1400 1396
1480 1478 1475 1472 1468 1464 1460 1455 1451 1447 1442 1438 1434 1429 1424 1418 1413 1408 1405 1400 1394 1390
1479 1475 1471 1467 1464 1460 1456 1451 1447 1442 1438 1434 1430 1425 1419 1414 1408 1403 1398 1394 1389 1384
1475 1472 1469 1464 1460 1455 1452 1448 1443 1439 1435 1430 1425 1420 1414 1408 1403 1397 1391 1386 1383 1378
1471 1468 1464 1461 1456 1452 1449 1445 1441 1435 1430 1425 1420 1415 1409 1403 1396 1391 1386 1381 1376 1371
1467 1463 1460 1457 1453 1449 1445 1441 1436 1432 1427 1422 1417 1411 1405 1398 1392 1386 1381 1375 1370 1364
1464 1461 1457 1454 1449 1445 1441 1437 1433 1428 1423 1417 1411 1406 1399 1393 1387 1380 1374 1368 1363 1357
1461 1457 1454 1450 1445 1442 1438 1433 1429 1423 1416 1411 1406 1401 1395 1389 1381 1375 1368 1361 1355 1350
1457 1453 1450 1446 1442 1438 1432 1428 1423 1417 1412 1406 1400 1394 1388 1382 1376 1369 1362 1356 1349 1342
1453 1450 1447 1443 1438 1433 1428 1423 1417 1412 1407 1400 1393 1387 1381 1375 1369 1362 1356 1350 1343 1337
1449 1446 1442 1439 1434 1429 1423 1417 1411 1406 1400 1393 1386 1381 1374 1370 1363 1355 1348 1342 1337 1333
1446 1443 1440 1435 1430 1424 1418 1412 1406 1399 1394 1388 1380 1374 1369 1366 1359 1350 1342 1336 1330 1325
1444 1440 1436 1430 1425 1418 1412 1406 1400 1393 1387 1381 1375 1369 1365 1361 1354 1347 1338 1331 1324 1318
Wind_Speed
14 17 20 23 26 28 30 31 32 33 33 33 33 34 34 34 32 30 29 27 26 29
18 21 25 27 29 29 29 30 30 31 32 32 33 34 34 34 34 31 29 27 30 34
21 24 25 26 26 27 27 29 29 29 30 31 32 33 34 35 34 32 30 34 37 36
22 24 24 24 25 26 26 27 28 29 31 32 34 34 35 34 33 33 34 37 37 33
24 24 23 24 26 27 27 27 28 29 31 34 35 37 37 37 37 35 37 37 34 28
23 23 25 26 25 25 26 27 28 31 34 36 37 38 38 38 38 38 37 35 37 39
23 25 26 25 26 26 27 29 31 33 35 36 37 37 38 38 38 39 37 39 43 43
25 25 25 25 26 27 28 30 32 35 36 38 38 38 38 37 37 38 40 43 44 43
24 25 25 26 27 29 31 34 36 37 39 40 39 38 37 34 34 37 40 42 43 41
24 24 25 27 29 32 35 37 38 39 39 39 38 38 36 33 33 37 38 39 39 39
23 24 26 29 32 34 36 38 39 40 39 39 40 38 37 32 34 36 37 37 38 38
24 26 28 32 33 34 37 38 40 40 40 41 42 39 34 32 35 37 39 39 38 35
24 27 30 31 34 36 36 39 41 42 42 41 40 38 31 32 34 37 39 40 40 39
25 28 31 34 34 36 39 41 42 44 44 42 37 36 32 32 33 34 38 40 43 45
Wind_Direction
359 355 349 344 340 337 334 333 331 331 331 331 331 330 328 327 326 325 321 316 312 312
349 347 344 339 334 330 330 332 334 335 335 336 335 334 332 331 329 327 323 317 314 317
347 339 332 329 330 333 335 336 337 338 340 342 342 340 337 334 330 328 321 317 317 321
336 335 335 334 334 335 337 339 340 342 342 341 341 340 337 335 331 327 322 324 326 327
337 334 332 333 337 337 337 337 338 338 338 338 338 338 337 334 331 329 327 327 329 328
331 331 334 335 335 334 334 334 335 336 337 336 335 334 332 329 326 326 326 323 321 322
334 337 334 335 335 334 334 335 335 334 333 333 331 330 328 324 322 321 322 317 319 322
335 333 334 333 333 334 333 333 334 333 331 331 330 330 328 324 320 317 315 314 316 319
330 334 333 332 333 332 333 334 332 332 331 329 328 326 325 324 320 317 315 318 320 322
332 332 331 332 333 334 333 330 330 330 329 327 327 329 328 325 321 317 320 321 323 324
329 329 332 334 334 331 329 330 330 328 328 328 329 331 330 328 323 323 323 323 323 322
330 332 333 331 328 328 328 328 328 329 329 330 329 332 331 329 326 324 323 323 321 322
331 330 327 326 328 328 327 327 329 327 329 329 330 334 331 330 326 322 322 321 324 327
326 326 327 326 327 326 328 328 328 327 328 330 334 335 329 328 326 323 320 324 324 320